Location: Masone
(44.5000°N, 8.7000°E)
Time: 06:22:42
(UTC+00:00)

Daily predictions for brighter satellites

Satellite Brightness Start Highest point End
(mag) Time Altitude Azimuth Time Altitude Azimuth Time Altitude Azimuth
ATLAS 5 CENTAUR R/B 2.7 19:02:57 10° NNW 19:08:31 57° NE 19:15:00 10° SE
SL-08 RB Rocket 3.9 19:08:20 10° S 19:12:56 80° WSW 19:17:38 10° NNW
MetOp-A 4.2 19:09:26 10° SSE 19:14:44 71° ENE 19:20:05 10° N
Cosmos 1833 Rocket 3.5 19:10:58 10° SSE 19:15:44 29° ESE 19:20:32 10° NE
Cosmos 1697 Rocket 3.7 19:11:05 10° N 19:16:04 31° NE 19:21:01 10° ESE
Cosmos 2228 Rocket 3.2 19:13:42 10° N 19:18:05 58° E 19:22:25 10° SSE
Cosmos 1515 Rocket 4.0 19:16:18 10° NNW 19:20:46 69° W 19:25:10 10° S
SPOT 3 Rocket 3.8 19:15:53 10° SSE 19:20:58 56° ENE 19:26:04 10° N
Cosmos 389 Rocket 3.3 19:17:54 10° N 19:21:02 32° ENE 19:24:09 10° SE
Cosmos 2251 Rocket 3.6 19:17:22 10° SSW 19:22:37 89° ESE 19:27:56 10° NNE
Cosmos 1812 3.6 19:19:28 10° N 19:22:57 31° ENE 19:26:25 10° SE
Cosmos 1727 Rocket 4.1 19:16:52 10° N 19:23:14 71° E 19:29:33 10° SSE
Cosmos 1656 3.8 19:22:26 10° NNW 19:27:53 63° ENE 19:33:22 10° SE
Cosmos 1633 3.8 19:26:57 10° SSW 19:30:20 43° WNW 19:33:44 10° N
Resurs 01 Rocket 2.0 19:27:53 10° SE 19:32:05 46° ENE 19:36:20 10° N
Cosmos 220 Rocket 4.5 19:28:25 10° N 19:32:28 43° ENE 19:36:05 12° SE
Cosmos 972 Rocket 3.9 19:29:23 10° NNW 19:34:25 87° ENE 19:39:18 10° SSE
FALCON 9 DEB 4.4 19:33:59 10° S 19:36:45 22° SE 19:39:33 10° E
Cosmos 1441 Rocket 3.5 19:33:53 10° S 19:37:32 45° E 19:41:09 10° NNE
IRIDIUM 114 4.3 19:34:57 10° S 19:40:05 65° E 19:45:16 10° N
Cosmos 614 Rocket 4.0 19:36:06 10° S 19:41:07 56° ESE 19:46:13 10° NNE
USA 267 3.2 19:42:11 10° NE 19:48:44 72° SE 19:55:16 10° SW
IRIDIUM 103 4.3 19:44:00 10° S 19:49:12 79° E 19:54:26 10° N
GP-B 4.2 19:47:16 10° NNE 19:51:00 26° E 19:53:14 18° SE
Cosmos 1821 Rocket 4.0 19:45:19 10° S 19:51:22 67° E 19:57:31 10° NNE
COSMOS 2406 3.2 19:47:43 10° SSW 19:53:29 85° ESE 19:59:15 10° NNE
Shenzhou-11 Module 1.5 19:52:25 10° W 19:54:43 52° S 19:55:30 32° SE
CZ-2C R/B 3.8 19:52:23 10° NNE 19:57:03 80° WNW 20:01:34 10° SSW
SL-16 R/B 4.3 19:55:16 10° N 19:58:16 14° NE 20:01:17 10° ENE
Intercosmos 25 3.2 19:54:28 10° N 19:58:55 77° E 20:01:26 17° SSE
ERS-1 Rocket 4.3 19:56:09 16° ESE 19:58:57 25° ENE 20:03:01 10° N
Lacrosse 5 3.8 19:56:55 10° NW 20:00:58 23° NNE 20:04:59 10° ENE
Cosmos 1862 3.8 19:58:47 10° SSW 20:02:47 65° W 20:06:51 10° N
Sich 1 3.0 19:59:15 10° S 20:03:40 79° E 20:08:08 10° N
Cosmos 2369 3.9 19:58:24 10° NNW 20:04:07 63° ENE 20:08:05 20° SE
BREEZE-M DEB (TANK) 3.7 20:05:27 10° WNW 20:08:15 29° N 20:09:55 11° NE
Cosmos 2082 Rocket 2.4 20:03:14 10° S 20:08:38 47° ESE 20:14:04 10° NE
Cosmos 1818 3.6 20:03:15 10° NW 20:08:45 85° NE 20:12:24 22° SE
Cosmos 2278 4.1 20:07:47 10° NNW 20:13:23 51° ENE 20:16:44 23° SE
Cosmos 2123 Rocket 4.1 20:07:37 10° N 20:13:46 59° ENE 20:18:06 20° SSE
Spot 2 Rocket 3.6 20:11:25 21° SE 20:14:45 61° ENE 20:19:47 10° N
Meteor 2-20 4.4 20:09:23 10° N 20:15:34 70° E 20:20:07 19° SSE
Cosmos 2239 Rocket 4.5 20:14:34 10° S 20:20:42 86° W 20:26:54 10° N
Cosmos 2322 Rocket 4.2 20:17:18 10° N 20:20:55 17° NE 20:24:25 10° E
Cosmos 1184 Rocket 3.3 20:21:02 36° ESE 20:21:18 37° E 20:24:23 10° NNE
Meteor 1-4 Rocket 2.5 20:17:55 10° N 20:21:22 58° ENE 20:22:26 38° SE
Cosmos 1190 Rocket 3.9 20:16:11 10° SSW 20:21:26 76° ESE 20:26:45 10° NNE
CARTOSAT-1 4.4 20:20:05 26° ESE 20:21:38 34° ENE 20:25:34 10° N
Terra 3.2 20:21:08 20° E 20:22:52 25° ENE 20:26:44 10° N
USA 234 3.4 20:18:46 19° ESE 20:23:33 67° NNE 20:30:01 10° NW
Cosmos 407 Rocket 3.6 20:19:02 10° SSW 20:24:23 84° WNW 20:29:43 10° NNE
CZ-2C R/B 4.4 20:20:01 10° N 20:24:33 32° WNW 20:29:06 10° SW
Cosmos 1605 Rocket 4.3 20:21:08 21° SSE 20:24:52 47° E 20:30:39 10° NNE
Cosmos 1666 Rocket 3.4 20:21:27 13° S 20:25:16 88° E 20:29:38 10° N
SL-8 R/B 4.3 20:22:08 10° WNW 20:26:43 44° SW 20:28:49 27° SSE
Cosmos 1238 Rocket 3.6 20:28:02 23° ENE 20:28:02 23° ENE 20:29:50 10° NNE
MetOp-B 4.2 20:25:45 19° S 20:29:44 77° WSW 20:35:07 10° NNW
Meteor 1-27 Rocket 4.0 20:26:17 10° NNW 20:32:12 72° W 20:36:54 17° S
Cosmos 2360 Rocket 4.4 20:32:19 10° NNE 20:34:49 13° NE 20:37:18 10° ENE
Cosmos 1437 Rocket 4.4 20:32:34 10° NNE 20:35:19 19° ENE 20:35:27 19° ENE
SPOT 5 3.2 20:35:54 33° ESE 20:37:07 42° ENE 20:41:13 10° N
USA 238 DEB 3.8 20:31:00 10° S 20:37:18 49° ESE 20:43:51 10° NE
USA 238 3.8 20:31:08 10° S 20:37:25 49° ESE 20:43:56 10° NE
BREEZE-M DEB (TANK) 3.8 20:35:33 10° W 20:38:06 16° WSW 20:38:59 14° SW
SPOT 1/Viking Rocket 3.5 20:39:53 29° SSE 20:42:36 87° ENE 20:47:52 10° NNW
Cosmos 1980 Rocket 2.2 20:38:53 10° NNW 20:44:36 77° ENE 20:47:05 35° SE
Cosmos 2242 Rocket 4.1 20:42:29 10° N 20:46:44 42° ENE 20:47:29 38° ESE
SL-4 R/B 1.9 20:43:57 10° WSW 20:47:53 73° NNW 20:51:32 10° ENE
Cosmos 405 Rocket 3.1 20:49:22 42° E 20:49:22 42° E 20:52:35 10° NNE
BREEZE-M DEB (TANK) 3.6 20:46:27 10° WNW 20:49:20 48° N 20:57:01 10° ENE
Cosmos 1140 Rocket 3.9 20:44:52 10° SSW 20:50:04 66° WNW 20:55:19 10° NNE
Genesis I 3.2 20:46:14 10° NNW 20:50:06 66° NE 20:50:44 55° ESE
ATLAS 5 CENTAUR R/B 3.7 20:47:55 10° NW 20:53:08 32° WSW 20:57:17 17° SSW
USA 32 4.0 20:53:02 27° S 20:55:57 87° W 21:01:13 10° N
Cosmos 1633 Rocket 3.9 20:55:05 15° SSW 20:58:37 49° WNW 21:02:56 10° N
Cosmos 1833 Rocket 3.8 20:54:06 10° SW 20:59:27 44° WNW 21:04:50 10° NNE
Cosmos 1697 Rocket 3.5 20:54:52 10° NW 21:00:10 44° WSW 21:03:04 24° SSW
Cosmos 1153 Rocket 4.5 21:03:26 38° SSE 21:05:41 62° E 21:11:45 10° NNE
CENTAUR R/B 2.7 21:04:46 41° SE 21:05:51 44° ESE 21:12:15 10° NE
Cosmos 1867 3.6 21:00:25 10° SW 21:05:51 80° NW 21:11:21 10° NNE
Meteor 1-18 Rocket 4.2 21:02:39 10° N 21:08:15 70° ENE 21:09:49 47° SE
Okean 1-7 3.4 21:04:13 10° N 21:08:24 45° ENE 21:08:30 45° E
Resurs 01 Rocket 4.0 21:05:48 10° SW 21:08:49 18° W 21:11:52 10° NW
FALCON 9 DEB 3.8 21:10:07 10° WSW 21:13:34 56° NNW 21:15:22 25° NE
Cosmos 1850 Rocket 4.1 21:14:18 51° ESE 21:14:43 52° ESE 21:19:51 10° NNE
Cosmos 1447 Rocket 4.4 21:09:03 10° N 21:15:26 85° E 21:17:47 42° SSE
Meteor 2-4 Rocket 4.1 21:12:25 10° N 21:17:54 47° ENE 21:18:53 42° ESE
Cosmos 1515 4.0 21:15:01 10° N 21:18:23 56° NE 21:18:23 56° NE
Meteor 1-25 Rocket 4.4 21:17:53 26° SSW 21:21:02 67° WNW 21:26:39 10° N
Cosmos 1470 Rocket 4.3 21:19:31 31° SW 21:21:20 51° WNW 21:25:39 10° N
ATLAS 5 CENTAUR R/B 3.6 21:19:31 10° NNW 21:22:06 26° NE 21:23:25 23° ENE
USA 267 4.3 21:25:22 10° NE 21:31:32 46° NNW 21:37:43 10° W
NOSS 3-2 (A) 3.5 21:26:16 10° SW 21:31:56 76° NW 21:38:29 10° NE
Cosmos 921 Rocket 3.4 21:30:40 10° NNW 21:34:46 51° WSW 21:34:50 51° WSW
ERS-1 Rocket 3.8 21:36:08 35° SW 21:37:30 43° W 21:42:18 10° NNW
NOSS 3-2 (C) 3.2 21:35:51 44° SSW 21:37:47 78° SE 21:44:15 10° NE
Cosmos 841 Rocket 3.9 21:36:30 10° N 21:41:33 48° ENE 21:42:00 47° E
Cosmos 540 Rocket 3.9 21:37:59 10° N 21:43:00 47° ENE 21:43:22 46° ENE
SL-16 R/B 2.2 21:37:48 10° NNW 21:43:30 69° ENE 21:44:17 61° ESE
Lacrosse 5 2.2 21:39:47 10° NW 21:44:49 59° NE 21:45:31 53° ENE
Cosmos 468 Rocket 3.9 21:39:54 10° NNW 21:45:13 76° WSW 21:45:45 68° SSW
Cosmos 1741 Rocket 3.9 21:48:23 67° SW 21:49:08 84° WNW 21:54:27 10° NNE
Cosmos 1570 Rocket 4.1 21:47:36 10° NNW 21:52:54 62° ENE 21:53:10 61° E
Cosmos 2082 Rocket 4.0 21:47:57 10° WSW 21:52:55 30° NW 21:57:54 10° N
Cosmos 2219 Rocket 4.2 21:50:20 10° N 21:54:09 18° NE 21:56:38 14° ENE
Cosmos 2208 Rocket 4.3 21:49:48 10° NNW 21:54:59 53° ENE 21:55:10 53° ENE
Cosmos 1814 Rocket 4.4 21:50:16 10° NNW 21:55:21 51° ENE 21:55:32 51° ENE
Terra 2.7 22:00:02 38° WSW 22:00:25 39° W 22:04:54 10° NNW
Cosmos 2322 Rocket 2.0 22:00:08 10° NNW 22:05:52 84° ENE 22:06:13 78° ESE
USA 234 3.8 22:06:06 40° SW 22:06:46 41° SW 22:12:53 10° WNW
Cosmos 2100 Rocket 4.0 22:05:35 54° SW 22:06:59 73° W 22:13:09 10° N
Meteor 1-11 Rocket 3.7 22:09:09 65° E 22:09:09 65° E 22:14:42 10° NNE
Cosmos 1437 Rocket 4.4 22:08:15 10° NNW 22:10:50 28° WNW 22:10:50 28° WNW
Cosmos 1869 Rocket 4.2 22:13:01 51° WNW 22:13:01 51° WNW 22:17:05 10° N
Cosmos 2360 Rocket 2.4 22:14:26 10° NNW 22:20:04 60° ENE 22:20:19 60° ENE
Geosat 4.0 22:20:48 73° WNW 22:20:48 73° WNW 22:25:32 10° NNW
ATLAS 3B R/B 2.7 22:21:12 58° ESE 22:21:12 58° ESE 22:27:18 10° NE
COSMOS 2428 4.4 22:16:12 10° N 22:20:49 24° NE 22:22:37 21° ENE
Iridium 4 Rocket 3.9 22:21:44 46° WNW 22:21:44 46° WNW 22:25:22 10° N
Cosmos 2173 Rocket 4.3 22:21:10 48° SW 22:22:35 59° W 22:28:40 10° N
ALOS 2 3.6 22:27:44 40° NE 22:27:44 40° NE 22:31:00 10° N
Cosmos 1725 Rocket 3.8 22:27:19 77° S 22:27:50 86° E 22:34:12 10° N
SL-4 R/B 3.8 22:24:36 10° WNW 22:27:12 26° NNW 22:27:12 26° NNW
Cosmos 1980 Rocket 4.2 22:24:33 10° WNW 22:27:52 16° W 22:28:51 15° WSW
SL-08 R/B 4.3 22:32:19 79° SSW 22:32:41 85° W 22:38:49 10° N
Cosmos 1536 4.3 22:34:39 35° N 22:34:39 35° N 22:37:02 10° N
Cosmos 2333 Rocket 3.1 22:35:08 10° NNW 22:40:31 38° NE 22:41:19 36° ENE
Cosmos 2016 Rocket 4.2 22:39:51 57° WSW 22:40:47 64° W 22:47:08 10° N
Cosmos 2061 Rocket 4.2 22:41:22 57° WSW 22:42:12 63° W 22:48:22 10° N
Lacrosse 4 Rocket 3.6 22:45:24 19° NE 22:45:24 19° NE 22:46:46 10° NE
MOS 1-B Rocket 4.3 22:40:21 10° N 22:45:52 52° WNW 22:46:44 48° W
Cosmos 1733 Rocket 4.1 22:50:59 44° NNW 22:50:59 44° NNW 22:54:08 10° N
Cosmos 1066 Rocket 4.2 22:48:22 10° NNW 22:53:46 75° WNW 22:53:46 75° WNW
Meteor 1-23 Rocket 4.3 22:50:05 10° NNW 22:55:43 78° WNW 22:55:43 78° WNW
CENTAUR R/B 3.6 22:51:50 16° WSW 22:56:32 43° NW 23:03:22 10° NNE
Thor Agena Rocket 4.0 22:52:10 10° N 22:57:00 53° WNW 22:57:00 53° WNW
Cosmos 968 Rocket 4.3 22:59:01 41° NE 22:59:01 41° NE 23:02:35 10° NNE
Cosmos 44 4.5 22:58:18 10° NW 23:01:33 37° WNW 23:01:33 37° WNW
Cosmos 2233 Rocket 4.1 23:14:31 65° W 23:14:52 66° W 23:21:11 10° N
Cosmos 1464 Rocket 4.4 23:15:36 50° E 23:15:36 50° E 23:21:29 10° NNE
Cosmos 2227 Rocket 4.3 23:22:42 14° E 23:22:42 14° E 23:24:43 10° ENE
SL-16 R/B 4.1 23:23:13 10° WNW 23:26:08 18° W 23:26:08 18° W
Lacrosse 5 3.9 23:23:11 10° WNW 23:24:41 17° WNW 23:24:41 17° WNW
Cosmos 2322 3.9 23:24:41 10° NNW 23:29:31 62° WNW 23:29:31 62° WNW
Nadezhda 4 Rocket 4.4 23:31:25 10° N 23:37:34 52° ENE 23:38:04 51° E
Cosmos 2219 Rocket 2.3 23:33:13 10° NNW 23:38:19 73° NNW 23:38:19 73° NNW
Cosmos 1513 Rocket 4.4 23:42:38 83° ESE 23:42:43 84° E 23:49:10 10° N
Cosmos 1975 Rocket 4.2 23:39:22 10° N 23:42:25 43° N 23:42:25 43° N
Cosmos 2034 Rocket 4.2 23:43:53 60° E 23:43:57 60° E 23:50:09 10° NNE
Cosmos 1503 Rocket 4.3 23:45:55 67° N 23:45:55 67° N 23:50:35 10° NNE
Cosmos 1072 Rocket 4.3 23:46:51 86° NW 23:46:51 86° NW 23:52:54 10° N
Cosmos 2322 Rocket 4.3 23:46:06 10° WNW 23:48:01 14° W 23:48:01 14° W
SL-16 R/B 4.2 23:46:15 18° E 23:49:26 27° ENE 23:54:30 10° N
Cosmos 1891 Rocket 4.4 23:53:06 80° WSW 23:53:18 81° W 23:59:48 10° N
SL-16 R/B 4.4 23:50:25 10° N 23:54:35 20° NE 23:58:45 10° E
CZ-2D R/B 4.0 23:50:52 10° NE 23:54:40 19° E 23:54:54 19° E
